KT5AL Weather Reports


Display with metric or nautical units.
time (UTC)temp
F
wind
direction
speed
MPH
gust
MPH
rain 1hr
in
rain 24hr
in
rain mn
in
humidity
%
barometer
mb
20260906045503 84 157 4.0 5.0 0.00 0.00 0.00 65 1011.4
20260906044503 84 157 4.0 5.0 0.00 0.00 0.00 64 1011.4
20260906044006 84 157 4.0 5.0 0.00 0.00 0.00 63 1011.4
20260906043008 84 157 4.0 5.0 0.00 0.00 0.00 63 1011.4
20260906042003 85 157 3.0 4.0 0.00 0.00 0.00 62 1011.4
20260906035506 85 157 6.0 8.0 0.00 0.00 0.00 62 1011.0
20260906034506 86 157 5.0 6.0 0.00 0.00 0.00 61 1011.0
20260906033507 86 180 7.0 9.0 0.00 0.00 0.00 60 1011.0
20260906033005 86 157 7.0 8.0 0.00 0.00 0.00 59 1011.0
20260906030509 87 135 7.0 10.0 0.00 0.00 0.00 56 1010.7
20260906030005 87 180 6.0 10.0 0.00 0.00 0.00 56 1010.7
20260906023505 88 135 9.0 14.0 0.00 0.00 0.00 53 1009.7
20260906023008 89 157 8.0 13.0 0.00 0.00 0.00 51 1009.7
20260906022505 89 157 8.0 10.0 0.00 0.00 0.00 49 1009.4
20260906022010 90 157 9.0 12.0 0.00 0.00 0.00 47 1009.4
20260906020003 91 112 8.0 10.0 0.00 0.00 0.00 43 1009.0
20260906014003 91 112 6.0 7.0 0.00 0.00 0.00 42 1008.7
20260906011503 91 135 5.0 6.0 0.00 0.00 0.00 42 1008.0
20260906011007 92 112 3.0 4.0 0.00 0.00 0.00 41 1008.0
20260906005504 92 112 6.0 8.0 0.00 0.00 0.00 40 1007.7
20260906004504 93 135 6.0 9.0 0.00 0.00 0.00 39 1007.3
20260906004007 94 112 5.0 8.0 0.00 0.00 0.00 38 1007.3
20260906003504 94 157 5.0 9.0 0.00 0.00 0.00 38 1007.0
20260906002505 94 112 7.0 10.0 0.00 0.00 0.00 38 1007.0
20260906001505 95 135 6.0 8.0 0.00 0.00 0.00 36 1007.0
20260906001008 96 135 6.0 9.0 0.00 0.00 0.00 36 1007.0
20260905231006 97 90 6.0 10.0 0.00 0.00 0.00 34 1005.6
20260905230504 98 157 7.0 9.0 0.00 0.00 0.00 34 1005.6
20260905224506 99 180 7.0 9.0 0.00 0.00 0.00 33 1005.6
20260905223507 98 112 7.0 9.0 0.00 0.00 0.00 34 1005.6
20260905223005 97 315 5.0 8.0 0.00 0.00 0.00 34 1005.6
20260905222508 98 112 4.0 6.0 0.00 0.00 0.00 34 1005.6
20260905222005 98 135 7.0 9.0 0.00 0.00 0.00 34 1005.6
20260905221509 98 157 8.0 11.0 0.00 0.00 0.00 34 1005.6
20260905221006 98 135 3.0 4.0 0.00 0.00 0.00 35 1005.6
20260905220503 97 247 0.0 0.0 0.00 0.00 0.00 35 1006.0
20260905214503 99 157 5.0 7.0 0.00 0.00 0.00 34 1005.6
20260905214006 98 112 7.0 9.0 0.00 0.00 0.00 35 1005.6
20260905213503 98 45 2.0 4.0 0.00 0.00 0.00 35 1006.0
20260905212504 98 135 7.0 11.0 0.00 0.00 0.00 36 1006.0
20260905212008 98 112 9.0 11.0 0.00 0.00 0.00 35 1006.0
20260905210004 97 112 7.0 9.0 0.00 0.00 0.00 36 1006.3
20260905204006 98 157 10.0 10.0 0.00 0.00 0.00 36 1007.0
20260905203503 96 157 4.0 7.0 0.00 0.00 0.00 39 1007.0
20260905203007 95 112 8.0 12.0 0.00 0.00 0.00 39 1007.0
20260905202505 96 112 11.0 15.0 0.00 0.00 0.00 39 1007.0
20260905201505 97 180 6.0 12.0 0.00 0.00 0.00 39 1007.3
20260905201008 96 112 7.0 10.0 0.00 0.00 0.00 39 1007.3
20260905200505 95 112 9.0 12.0 0.00 0.00 0.00 39 1007.3
20260905195505 96 90 7.0 11.0 0.00 0.00 0.00 39 1007.7
20260905195008 96 112 4.0 5.0 0.00 0.00 0.00 39 1007.7
20260905194008 97 180 6.0 8.0 0.00 0.00 0.00 38 1007.7
20260905191007 95 180 8.0 10.0 0.00 0.00 0.00 38 1008.7
20260905190505 96 135 8.0 11.0 0.00 0.00 0.00 39 1008.7
20260905185506 96 135 7.0 10.0 0.00 0.00 0.00 39 1009.0
20260905184507 94 135 9.0 11.0 0.00 0.00 0.00 40 1009.4
20260905182507 96 157 2.0 4.0 0.00 0.00 0.00 41 1009.4
20260905175508 94 225 5.0 7.0 0.00 0.00 0.00 43 1010.0
20260905175005 94 202 10.0 12.0 0.00 0.00 0.00 42 1010.0
20260905174508 94 157 4.0 9.0 0.00 0.00 0.00 42 1009.7
20260905174005 94 225 8.0 11.0 0.00 0.00 0.00 41 1009.7
20260905173508 94 112 5.0 6.0 0.00 0.00 0.00 41 1010.0
20260905171504 94 180 12.0 17.0 0.00 0.00 0.00 41 1010.0
20260905165504 95 202 5.0 8.0 0.00 0.00 0.00 43 1010.4
20260905164530 93 157 6.0 8.0 0.00 0.00 0.00 44 1010.4
20260905164008 93 157 6.0 7.0 0.00 0.00 0.00 45 1010.4
20260905162004 93 180 9.0 10.0 0.00 0.00 0.00 46 1010.4
20260905161507 93 202 1.0 3.0 0.00 0.00 0.00 46 1010.4
20260905153503 88 270 7.0 9.0 0.00 0.00 0.00 61 1011.0
20260905150008 87 225 8.0 10.0 0.00 0.00 0.00 65 1011.7
20260905145505 86 202 9.0 11.0 0.00 0.00 0.00 67 1011.7
20260905145008 86 225 8.0 10.0 0.00 0.00 0.00 65 1011.7
20260905144506 86 202 7.0 9.0 0.00 0.00 0.00 67 1011.7
20260905143506 85 180 6.0 7.0 0.00 0.00 0.00 69 1011.7
20260905143004 85 202 9.0 10.0 0.00 0.00 0.00 69 1011.7
20260905142005 85 202 7.0 9.0 0.00 0.00 0.00 71 1012.1
20260905141508 84 202 4.0 5.0 0.00 0.00 0.00 73 1012.1
20260905141005 84 202 8.0 10.0 0.00 0.00 0.00 73 1012.1
20260905140509 83 202 7.0 8.0 0.00 0.00 0.00 75 1012.1
20260905140006 83 202 7.0 9.0 0.00 0.00 0.00 75 1012.1
20260905134007 82 225 2.0 3.0 0.00 0.00 0.00 81 1012.4
20260905133007 80 292 4.0 5.0 0.00 0.00 0.00 86 1012.4
20260905132505 79 315 3.0 3.0 0.00 0.00 0.00 88 1012.7
20260905132008 79 315 2.0 3.0 0.00 0.00 0.00 89 1012.7
20260905131505 78 315 3.0 4.0 0.00 0.00 0.00 91 1013.4
20260905131008 78 315 3.0 3.0 0.00 0.00 0.00 92 1013.4
20260905130506 77 315 3.0 3.0 0.00 0.00 0.00 93 1013.8
20260905125506 76 315 0.0 0.0 0.00 0.00 0.00 94 1013.8
20260905124003 76 315 2.0 3.0 0.00 0.00 0.00 95 1014.4
20260905121508 75 180 0.0 0.0 0.00 0.00 0.00 91 1014.1
20260905121005 76 180 2.0 3.0 0.00 0.00 0.00 92 1014.1
20260905120507 75 157 2.0 3.0 0.00 0.00 0.00 91 1014.1
20260905120005 76 157 3.0 4.0 0.00 0.00 0.00 92 1014.1
20260905115508 75 157 3.0 4.0 0.00 0.00 0.00 90 1014.1
20260905115005 76 157 4.0 4.0 0.00 0.00 0.00 90 1014.1
20260905114006 76 157 3.0 4.0 0.00 0.00 0.00 90 1013.8
20260905113007 76 157 0.0 0.0 0.00 0.00 0.00 90 1013.8
20260905110505 77 157 2.0 3.0 0.00 0.00 0.00 87 1013.4
20260905105506 77 180 4.0 6.0 0.00 0.00 0.00 87 1013.4
20260905104004 78 135 7.0 9.0 0.00 0.00 0.00 86 1013.4
20260905103509 78 157 4.0 5.0 0.00 0.00 0.00 85 1013.4
20260905100503 78 202 3.0 4.0 0.00 0.00 0.00 84 1013.4
20260905094008 78 202 3.0 4.0 0.00 0.00 0.00 83 1013.4
20260905093004 78 202 4.0 4.0 0.00 0.00 0.00 82 1013.4
20260905091507 78 202 5.0 7.0 0.00 0.00 0.00 82 1013.1
20260905091004 79 202 5.0 6.0 0.00 0.00 0.00 81 1013.1
20260905090004 79 202 5.0 6.0 0.00 0.00 0.00 80 1013.1
20260905081005 80 225 5.0 6.0 0.00 0.00 0.00 74 1012.4
20260905080005 81 225 4.0 5.0 0.00 0.00 0.00 73 1012.4
20260905075508 81 225 5.0 6.0 0.00 0.00 0.00 73 1012.4
20260905074508 81 225 7.0 8.0 0.00 0.00 0.00 72 1012.4
20260905074005 81 225 6.0 7.0 0.00 0.00 0.00 71 1012.4
20260905073511 81 225 7.0 8.0 0.00 0.00 0.00 71 1012.4
20260905071504 82 180 5.0 6.0 0.00 0.00 0.00 69 1012.4
20260905070504 82 180 5.0 6.0 0.00 0.00 0.00 67 1012.4
20260905070008 83 180 7.0 8.0 0.00 0.00 0.00 67 1012.4
20260905065505 83 180 6.0 7.0 0.00 0.00 0.00 67 1012.4
20260905065008 83 180 7.0 9.0 0.00 0.00 0.00 66 1012.4
20260905064505 83 180 7.0 8.0 0.00 0.00 0.00 66 1012.4
20260905063504 84 180 7.0 9.0 0.00 0.00 0.00 65 1012.1
20260905063007 84 180 8.0 10.0 0.00 0.00 0.00 65 1012.1
20260905062505 84 180 8.0 11.0 0.00 0.00 0.00 65 1012.1
20260905061506 84 180 9.0 10.0 0.00 0.00 0.00 64 1012.1
20260905061004 84 180 10.0 12.0 0.00 0.00 0.00 63 1012.1
20260905052505 85 180 10.0 12.0 0.00 0.00 0.00 61 1011.7
20260905052008 85 180 10.0 12.0 0.00 0.00 0.00 61 1011.7
20260905051009 85 180 9.0 10.0 0.00 0.00 0.00 60 1011.4